Flag for Bolivia Weather past 2 weeks in Cochabamba, Bolivia

Now
59 °F

Mostly cloudy.


Feels Like: 58 °F
Forecast: 57 / 77 °F
Wind: 6 mph from South

Location: Cochabamba Airport

Current Time: Jan 28, 2015 at 5:24:12 AM

Latest Report: Jan 28, 2015 at 4:00 AM


Visibility: N/A

Pressure: 30.21 "Hg

Humidity: 68%

Dew point: 48 °F

Location of CochabambaLocation

Historic Weather in Cochabamba — Graph

°F

Cochabamba temperature yesterday

Maximum temperature yesterday: 79 °F (at 2:00 PM)
Minimum temperature yesterday: 52 °F (at 5:00 AM)
Average temperature yesterday: 66 °F

Past Weeks' High & Low Weather Summary

 TemperatureHumidityPressure
High79 °F (Jan 14, 2:00 PM)100% (Jan 17, 6:00 AM)30.42 "Hg (Jan 17, 6:00 AM)
Low52 °F (Jan 27, 5:00 AM)26% (Jan 27, 3:00 PM)30.04 "Hg (Jan 27, 5:00 PM)
Average63 °F66%30.28 "Hg
* Reported Jan 13 4:00 AM — Jan 28 4:00 AM, Cochabamba, Weather by CustomWeather, © 2014

Note: Actual official high and low records may vary slightly from our data, if they occured in-between our weather recording intervals... More about our weather records

Advertising

Cochabamba weather history for previous 24 hours

 ConditionsComfort  
Time TempWeatherWind HumidityBarometerVisibility
4:00 AM
Jan 28
59 °FMostly cloudy.6 mph68%30.21 "HgN/A
3:00 AM59 °FMostly cloudy.6 mph72%30.21 "HgN/A
2:00 AM61 °FMostly cloudy.6 mph72%30.21 "HgN/A
1:00 AM59 °FPartly cloudy.6 mph77%30.24 "HgN/A
12:00 AM61 °FPartly cloudy.9 mph72%30.21 "HgN/A
11:00 PM
Jan 27
64 °FPassing clouds.3 mph68%30.21 "HgN/A
10:00 PM64 °FPassing clouds.No wind68%30.18 "HgN/A
9:00 PM63 °FPassing clouds.No wind68%30.15 "HgN/A
8:00 PM64 °FPartly cloudy.6 mph64%30.15 "HgN/A
7:00 PM72 °FBroken clouds.12 mph33%30.09 "HgN/A
6:00 PM73 °FMild.21 mph33%30.07 "HgN/A
5:00 PM77 °FBroken clouds.21 mph28%30.04 "HgN/A
4:00 PM79 °FBroken clouds.7 mph28%30.07 "HgN/A
3:00 PM79 °FBroken clouds.9 mph26%30.07 "HgN/A
2:00 PM79 °FScattered clouds.5 mph28%30.09 "HgN/A
1:00 PM77 °FScattered clouds.5 mph34%30.15 "HgN/A
12:00 PM75 °FScattered clouds.No wind36%30.18 "HgN/A
11:00 AM72 °FScattered clouds.No wind41%30.21 "HgN/A
10:00 AM70 °FScattered clouds.5 mph50%30.24 "HgN/A
9:00 AM66 °FScattered clouds.No wind52%30.24 "Hg6 mi
8:00 AM63 °FScattered clouds.No wind64%30.24 "Hg6 mi
7:00 AM54 °FScattered clouds.No wind88%30.24 "Hg2 mi
6:00 AM52 °FPassing clouds.No wind88%30.21 "Hg2 mi
5:00 AM52 °FPassing clouds.No wind88%30.18 "HgN/A
Weather by CustomWeather, © 2014

See weather overviewHow to use our weather pages